Content
SEND FEEDBACK

Daily
Averages
Monthly
Summary
United States of America

SOLEDAD, CALIFORNIA


Home > North America > United States > California
Elevation: 200 feet     Latitude: 36 26N     Longitude: 121 19W

WEATHER
 
SELECT A DAY
Number of Records: 199,662;   Date Range: 1/1/95 - 9/20/14
 
SHARE

PRINT THIS DATA

[ ← Previous Day ]
WEATHER ALMANAC - JULY 18, 2013
[ Next Day → ]
[ °C ]   °F
Weather ElementAverageHighLow
Temperature59.1 °F68 °F (11:53 am)55 °F (4:53 am)
Dewpoint53.3 °F55 °F (11:53 am)52 °F (3:53 am)
Humidity81.5 %94 % (8:49 am)63 % (11:53 am)
Barometer30.06 in30.11 in (8:53 am)30.00 in (5:34 pm)
Wind Speed7.2 mph17.3 mph (1:53 pm)
Wind Gust23 mph (1:53 pm)
Weather ElementAverage
Visibility7.6 mi
Wind DirectionSSW (189 °)

Weather ElementTotal
Precipitation---
Heating Degree Days3.5 (Base 65)
Growing Degree Days11.5 (Base 50)
Averaged from 29 records on July 18, 2013
WEATHER CONDITIONS BREAKOUT
WIND DIRECTION BREAKOUT
WEATHER BY HOUR - JULY 18, 2013
[ °C ]   °F
Local TimeTemperatureDewpointHumidityBarometerVisibilityWind DirectionWind SpeedGust SpeedPrecipitationEventsConditions
1:53 AM57.0 °F54.0 °F89 %30.09 in10.0 miCalmOvercast
2:53 AM55.9 °F53.1 °F90 %30.08 in10.0 miCalmOvercast
3:53 AM55.9 °F52.0 °F87 %30.08 in10.0 miSW (230°)3.5 mphOvercast
4:53 AM55.0 °F52.0 °F89 %30.08 in9.0 miSouth (190°)4.6 mphOvercast
5:53 AM55.0 °F52.0 °F89 %30.09 in8.0 miWSW (240°)3.5 mphOvercast
6:53 AM55.0 °F53.1 °F93 %30.09 in5.0 miCalmOvercast
7:53 AM55.9 °F53.1 °F90 %30.10 in5.0 miCalmOvercast
8:49 AM55.4 °F53.6 °F94 %30.08 in6.0 miCalmOvercast
8:53 AM55.9 °F53.1 °F90 %30.11 in6.0 miCalmOvercast
9:53 AM59.0 °F53.1 °F81 %30.10 in7.0 miCalmOvercast
10:25 AM60.8 °F53.6 °F77 %30.06 in7.0 miCalmOvercast
10:44 AM62.6 °F53.6 °F72 %30.06 in7.0 miVariable3.5 mphScattered Clouds
10:53 AM63.0 °F54.0 °F72 %30.08 in7.0 miWest (270°)4.6 mphClear
11:53 AM68.0 °F55.0 °F63 %30.07 in7.0 miWNW (290°)9.2 mph0.00 inClear
12:53 PM66.9 °F54.0 °F63 %30.07 in10.0 miWest (280°)15.0 mph0.00 inClear
1:53 PM66.0 °F54.0 °F65 %30.06 in10.0 miWNW (290°)17.3 mph23.0 mphClear
2:53 PM66.0 °F54.0 °F65 %30.06 in9.0 miWNW (290°)12.7 mphClear
3:53 PM64.0 °F53.1 °F67 %30.04 in10.0 miWest (270°)13.8 mphClear
4:53 PM63.0 °F53.1 °F70 %30.03 in9.0 miWNW (290°)12.7 mphClear
5:34 PM62.6 °F53.6 °F72 %30.00 in9.0 miWNW (290°)12.7 mph20.7 mphMostly Cloudy
5:53 PM60.1 °F53.1 °F78 %30.03 in8.0 miWest (280°)12.7 mphOvercast
6:02 PM60.8 °F53.6 °F77 %30.00 in7.0 miWNW (300°)12.7 mphOvercast
6:53 PM57.9 °F53.1 °F84 %30.02 in7.0 miWest (270°)13.8 mphOvercast
7:53 PM57.0 °F53.1 °F87 %30.02 in6.0 miWNW (300°)11.5 mphOvercast
8:08 PM55.4 °F53.6 °F94 %30.00 in5.0 miWNW (290°)12.7 mphOvercast
8:53 PM55.9 °F53.1 °F90 %30.03 in7.0 miWest (270°)9.2 mphOvercast
9:53 PM55.0 °F53.1 °F93 %30.03 in6.0 miWest (280°)9.2 mphOvercast
10:53 PM55.0 °F53.1 °F93 %30.03 in6.0 miWNW (290°)6.9 mphOvercast
11:53 PM55.0 °F52.0 °F89 %30.02 in7.0 miWest (270°)5.8 mphOvercast
Hourly data recorded from KSNS, located miles away from Soledad, California







STORIES FROM OUR PARTNERS